User: anonymous   Login
Location: Killam
(52.7910°N, 111.8608°W)
Time: 17:23:39
(UTC+00:00)
Language:

AO-85 - Orbit

View from above orbital plane
View from above orbital plane
View from above satellite
View from above satellite

Ground track
Ground track

The orbit data is extracted from the following two-line orbital elements,

1 40967U 15058D   25012.58854065  .00007124  00000-0  61790-3 0  9996
2 40967  64.7774  91.7145 0181077 241.3706 116.9088 14.85970339 36064
Epoch (UTC): 12 January 2025 14:07:29
Eccentricity: 0.0181077
inclination: 64.7774°
perigee height: 484 km
apogee height: 737 km
right ascension of ascending node: 91.7145°
argument of perigee: 241.3706°
revolutions per day: 14.85970339
mean anomaly at epoch: 116.9088°
orbit number at epoch: 3606

The dashed part of the orbit path shows where the satellite is in the earth's shadow,  

DLR